Date,TemperatureHighF,TemperatureAvgF,TemperatureLowF,DewpointHighF,DewpointAvgF,DewpointLowF,HumidityHigh,HumidityAvg,HumidityLow,PressureMaxIn,PressureMinIn,WindSpeedMaxMPH,WindSpeedAvgMPH,GustSpeedMaxMPH,PrecipitationSumIn
2014-1-1,45,35,26,30,25,17,82,66,49,30.41,30.14,0,0,0,0.00
2014-1-2,48,35,15,47,31,13,99,88,74,30.14,29.68,0,0,0,0.05
2014-1-3,24,16,8,17,11,5,93,80,67,30.49,29.93,0,0,0,0.00
2014-1-4,45,29,18,38,19,5,97,65,41,30.49,30.24,0,0,0,0.02
2014-1-5,52,45,39,49,43,38,99,94,86,30.24,29.64,0,0,0,0.00
2014-1-6,45,18,-2,44,15,-7,98,89,72,30.31,29.62,0,0,0,0.04
2014-1-7,20,5,-5,7,-3,-10,84,69,47,30.63,30.29,0,0,0,0.00
2014-1-8,44,26,11,22,11,-2,70,54,37,30.70,30.54,0,0,0,0.01
2014-1-9,51,34,27,35,22,14,90,63,28,30.55,30.40,0,0,0,0.01
2014-1-10,50,42,34,50,41,32,100,98,88,30.44,30.03,0,0,0,0.17
2014-1-11,58,50,39,52,44,30,100,83,42,30.03,29.58,0,0,0,0.98
2014-1-12,50,39,34,34,32,28,87,77,46,30.17,29.80,0,0,0,0.00
2014-1-13,53,44,36,39,33,29,91,68,51,30.13,29.89,0,0,0,0.00
2014-1-14,51,42,37,40,36,28,98,79,53,29.97,29.77,0,0,0,0.08
2014-1-15,40,32,22,33,27,18,95,81,63,30.01,29.90,0,0,0,0.02
2014-1-16,41,27,17,20,16,14,87,66,39,30.09,29.96,0,0,0,0.00
2014-1-17,41,32,21,24,20,15,89,59,49,30.02,29.93,0,0,0,0.00
2014-1-18,36,24,14,21,15,11,92,70,47,30.12,29.94,0,0,0,0.01
2014-1-19,46,38,31,29,24,16,76,57,49,30.04,29.96,0,0,0,0.00
2014-1-20,61,45,30,31,23,11,66,42,27,29.98,29.82,0,0,0,0.00
2014-1-21,45,33,12,32,24,9,99,72,48,29.90,29.60,0,0,0,0.00
2014-1-22,28,15,5,9,5,0,88,66,40,30.19,29.90,0,0,0,0.00
2014-1-23,17,16,15,9,7,3,76,67,52,30.32,30.17,0,0,0,0.00
2014-1-24,26,16,-1,0,-3,-7,79,46,30,30.68,30.28,0,0,0,0.00
2014-1-25,34,26,16,25,10,-7,94,55,25,30.28,29.78,0,0,0,0.00
2014-1-26,46,29,23,29,17,7,70,60,39,29.98,29.86,0,0,0,0.01
2014-1-27,47,38,18,35,25,2,74,61,46,30.11,29.83,0,0,0,0.00
2014-1-28,18,16,13,16,10,2,92,77,51,30.27,30.10,0,0,0,0.00
2014-1-29,21,11,4,4,0,-2,87,62,46,30.42,30.37,0,0,0,0.06
2014-1-30,38,18,8,16,5,-4,75,57,36,30.43,30.24,0,0,0,0.04
2014-1-31,51,33,22,22,16,11,69,52,29,30.27,30.18,0,0,0,0.00
2014-2-1,63,44,30,37,26,18,71,50,22,30.23,30.07,0,0,0,0.00
2014-2-2,63,50,38,50,42,32,95,75,52,30.09,29.91,0,0,0,0.01
2014-2-3,55,44,35,54,42,34,99,94,80,30.19,29.76,0,0,0,0.86
2014-2-4,44,38,34,40,36,33,99,93,82,30.31,30.01,0,0,0,0.05
2014-2-5,50,42,28,48,40,24,99,92,77,30.09,29.81,0,0,0,0.03
2014-2-6,27,25,23,22,22,21,91,86,82,30.36,30.33,0,0,0,0.00
2014-2-7,43,30,22,29,23,20,94,78,52,30.41,30.27,7,1,8,0.00
2014-2-8,44,32,30,32,26,22,94,77,61,30.29,30.17,5,0,8,0.00
2014-2-9,52,36,30,40,33,28,98,88,60,30.18,30.00,8,2,11,0.00
2014-2-10,35,31,28,33,30,26,97,95,91,30.23,30.05,9,4,11,0.07
2014-2-11,32,28,26,30,28,25,97,96,95,30.32,30.21,4,0,7,0.01
2014-2-12,27,23,21,26,21,16,97,94,78,30.33,29.88,5,1,7,0.00
2014-2-13,30,27,23,29,26,22,97,95,72,29.88,29.72,14,7,20,0.02
2014-2-14,52,39,30,33,28,22,80,66,41,29.89,29.64,11,3,14,0.40
2014-2-15,38,28,23,34,23,17,96,83,66,30.12,29.57,20,11,28,0.02
2014-2-16,26,25,24,25,20,18,95,84,75,30.12,30.09,5,2,6,0.00
2014-2-24,36,36,35,18,18,17,50,48,45,30.12,30.10,0,0,1,0.00
2014-2-25,52,41,33,28,23,17,63,49,37,30.10,29.94,12,5,18,0.00
2014-2-26,-200,0,200,-100,-100,-100,0,0,100,29.87,29.86,8,7,11,0.01
2014-2-27,42,20,18,10,-34,-100,51,21,24,30.01,29.83,15,8,20,0.00
2014-2-28,46,33,22,18,13,8,64,44,29,30.25,30.01,9,3,12,0.00
2014-3-1,54,38,31,34,23,16,65,56,48,30.32,30.19,4,1,9,0.00
2014-3-2,67,53,40,50,42,32,83,67,54,30.22,29.87,11,2,18,0.00
2014-3-3,54,39,25,48,37,25,98,93,77,30.16,29.69,16,3,25,0.33
2014-3-4,43,32,23,31,25,22,98,79,54,30.27,30.14,4,0,7,0.00
2014-3-5,59,41,29,36,28,22,89,65,33,30.21,30.07,5,1,6,0.00
2014-3-6,33,32,32,32,30,29,95,93,90,30.09,30.07,0,0,0,0.13
2014-3-7,54,40,32,44,37,31,99,89,66,30.08,29.96,9,1,11,0.42
2014-3-8,66,50,37,44,37,32,93,65,35,30.11,29.99,11,3,12,0.00
2014-3-9,64,51,43,42,34,23,83,56,30,30.10,30.02,14,8,16,0.00
2014-3-10,70,52,41,45,36,24,74,56,36,30.06,29.84,11,5,16,0.00
2014-3-11,76,58,47,43,38,36,76,51,25,29.87,29.66,9,3,12,0.00
2014-3-12,66,55,27,58,47,26,96,77,41,29.72,29.28,23,4,30,0.04
2014-3-13,40,30,23,26,16,8,94,60,32,30.29,29.72,22,13,28,0.02
2014-3-14,59,41,26,26,18,9,59,40,26,30.33,30.09,9,2,12,0.00
2014-3-15,66,53,46,42,34,25,63,48,32,30.10,29.98,11,4,15,0.00
2014-3-16,50,44,38,45,38,31,98,81,49,30.01,29.67,6,1,10,0.38
2014-3-17,38,34,30,37,33,29,100,97,96,29.92,29.70,6,1,10,0.20
2014-3-18,52,38,30,44,35,29,100,92,72,30.10,29.89,8,2,13,0.00
2014-3-19,50,49,48,45,42,39,84,77,70,30.01,29.98,12,8,15,0.00
2014-3-20,59,48,39,42,31,21,88,58,27,30.08,29.96,14,10,19,0.00
2014-3-21,64,48,34,29,25,21,67,42,24,30.17,30.01,8,2,12,0.00
2014-3-22,69,57,50,45,36,26,63,45,37,30.05,29.92,7,1,10,0.00
2014-3-23,54,44,34,46,37,25,99,78,63,30.13,29.89,17,7,21,0.34
2014-3-24,54,37,26,28,22,14,83,57,27,30.25,30.04,14,4,18,0.00
2014-3-25,39,33,24,32,26,15,96,79,43,30.11,29.85,19,7,27,0.09
2014-3-26,45,30,19,19,14,11,77,54,31,30.35,30.10,20,9,24,0.00
2014-3-27,56,42,27,28,19,12,65,42,28,30.40,30.20,10,4,15,0.00
2014-3-28,55,51,47,51,46,28,96,85,46,30.22,30.05,7,2,11,0.00
2014-3-29,58,50,34,58,49,33,100,96,92,30.07,29.61,20,5,25,0.34
2014-3-30,51,38,29,38,31,28,99,80,49,30.14,29.82,24,17,32,0.08
2014-3-31,74,53,36,33,28,24,70,44,18,30.23,30.06,15,4,16,0.00
2014-4-1,81,63,49,48,37,26,56,38,28,30.11,29.97,7,1,12,0.00
2014-4-2,83,66,55,54,40,30,56,40,23,30.07,29.92,6,1,10,0.00
2014-4-3,82,67,55,56,48,36,83,52,27,30.02,29.79,9,2,13,0.00
2014-4-4,68,62,55,55,52,45,95,69,55,29.84,29.69,15,2,15,0.04
2014-4-5,64,50,39,48,38,33,86,67,40,30.06,29.82,13,8,20,0.00
2014-4-6,59,49,43,40,36,30,86,62,47,30.12,29.96,8,2,13,0.02
2014-4-7,54,46,41,54,46,40,100,98,88,30.02,29.64,8,2,12,1.60
2014-4-8,56,46,42,53,41,37,96,84,70,29.77,29.65,13,7,18,0.00
2014-4-9,62,49,43,44,37,30,95,67,37,30.13,29.77,11,7,18,0.00
2014-4-10,72,55,40,43,35,30,75,50,32,30.26,30.09,7,2,13,0.00
2014-4-11,76,62,53,46,40,36,53,44,31,30.17,29.99,5,1,10,0.00
2014-4-12,78,65,51,53,44,39,75,50,29,30.16,30.02,6,2,13,0.00
2014-4-13,78,66,59,56,52,46,74,61,43,30.08,29.95,10,2,18,0.00
2014-4-14,63,60,57,60,55,52,96,86,71,29.95,29.72,6,3,12,0.02
2014-4-15,59,44,30,57,42,24,99,93,78,30.04,29.57,21,10,29,0.59
2014-4-16,58,39,24,30,24,18,84,59,26,30.40,30.03,13,5,15,0.01
2014-4-17,61,46,33,33,28,25,75,52,28,30.48,30.34,8,3,13,0.00
2014-4-18,51,46,42,43,35,28,96,67,53,30.40,30.19,4,0,5,0.12
2014-4-19,52,46,43,51,46,42,99,98,92,30.24,30.11,2,0,5,0.68
2014-4-20,71,54,43,48,42,31,99,69,29,30.30,30.16,5,1,8,0.00
2014-4-21,77,60,44,50,41,33,69,51,32,30.17,29.90,7,2,10,0.00
2014-4-22,66,59,54,61,52,44,96,77,57,29.90,29.71,9,2,12,0.10
2014-4-23,69,56,44,55,38,30,92,54,30,29.98,29.75,13,9,16,0.00
2014-4-24,73,58,45,44,36,30,62,45,31,30.07,29.89,7,2,14,0.00
2014-4-25,71,60,54,58,50,39,91,71,47,29.91,29.69,13,5,19,0.00
2014-4-26,78,70,56,47,45,41,71,43,28,30.01,29.92,6,2,7,0.00
2014-4-27,82,77,69,55,47,39,61,36,23,29.94,29.83,5,3,12,0.00
2014-4-28,80,68,61,62,58,56,91,73,48,29.90,29.71,19,2,19,0.13
2014-4-29,64,61,60,62,60,60,99,97,92,29.77,29.66,15,2,15,4.32
2014-4-30,64,60,56,60,57,53,92,89,84,29.85,29.77,7,2,7,0.00
2014-5-1,68,57,50,54,49,39,94,76,54,29.89,29.78,12,6,15,0.00
2014-5-2,68,55,47,46,40,36,72,58,41,29.95,29.82,13,4,14,0.00
2014-5-3,72,58,46,48,42,39,76,58,39,29.97,29.87,12,5,16,0.00
2014-5-4,81,67,55,54,46,40,62,47,32,30.01,29.89,13,5,15,0.00
2014-5-5,88,74,65,58,50,45,58,44,28,29.93,29.76,7,2,9,0.00
2014-5-6,86,72,63,59,50,40,63,46,32,29.91,29.79,7,2,10,0.00
2014-5-7,83,70,57,59,51,42,75,52,35,30.04,29.91,4,1,7,0.00
2014-5-8,86,72,60,60,53,47,71,53,29,30.15,30.01,5,1,7,0.00
2014-5-9,72,67,59,61,57,53,97,72,59,30.07,29.97,5,1,7,0.15
2014-5-10,69,62,58,64,59,56,97,89,75,30.07,29.98,2,0,7,0.03
2014-5-11,83,68,55,65,58,54,97,75,40,30.14,30.03,4,1,7,0.00
2014-5-12,83,70,60,66,62,58,97,78,51,30.14,30.05,4,0,8,0.00
2014-5-13,84,70,62,68,62,59,98,79,47,30.10,30.00,6,1,9,0.00
2014-5-14,78,68,61,64,60,56,95,77,52,30.08,29.91,4,1,13,0.13
2014-5-15,64,56,46,64,56,45,100,99,96,29.97,29.81,10,3,18,1.40
2014-5-16,59,47,42,51,44,39,99,88,67,30.12,29.93,9,3,12,0.10
2014-5-17,58,48,39,49,43,36,97,82,66,30.21,30.10,4,0,7,0.00
2014-5-18,62,51,45,54,47,43,98,87,69,30.22,30.15,4,0,6,0.00
2014-5-19,70,55,42,53,48,42,99,80,47,30.29,30.17,4,1,7,0.00
2014-5-20,76,62,50,63,55,48,95,79,58,30.25,30.06,3,0,5,0.00
2014-5-21,82,69,58,65,57,-100,90,70,49,30.09,29.95,7,-4,12,0.00
2014-5-22,82,70,62,68,61,55,92,76,58,30.03,29.87,12,2,18,0.02
2014-5-23,79,68,63,67,62,57,96,83,64,30.04,29.93,7,3,15,0.14
2014-5-24,79,65,54,57,50,42,88,62,27,30.11,29.98,6,1,11,0.00
2014-5-25,76,63,53,64,55,46,90,76,60,30.14,30.06,2,0,7,0.00
2014-5-26,82,68,57,68,62,56,98,82,57,30.17,30.05,3,0,7,0.00
2014-5-27,78,68,62,69,63,59,98,85,64,30.10,29.97,3,0,11,0.03
2014-5-28,84,70,59,69,63,58,99,80,51,30.03,29.92,4,0,7,0.00
2014-5-29,79,69,61,68,63,58,96,80,61,30.02,29.94,4,0,8,0.00
2014-5-30,79,68,62,70,64,61,99,88,71,30.04,29.97,5,1,7,0.00
2014-5-31,76,67,62,67,63,61,99,89,73,30.12,30.01,4,0,12,0.00
2014-6-1,72,64,60,62,60,57,91,85,72,30.22,30.11,3,0,9,0.00
2014-6-2,75,64,57,62,57,53,92,78,61,30.22,30.07,5,1,9,0.00
2014-6-3,78,66,57,69,61,55,93,83,68,30.10,29.96,3,0,8,0.00
2014-6-4,83,71,58,70,64,57,99,80,55,29.98,29.75,3,0,8,0.00
2014-6-5,76,70,66,69,65,63,92,85,74,29.83,29.70,5,1,11,0.01
2014-6-6,80,70,63,68,64,61,100,83,61,29.89,29.81,4,1,9,0.00
2014-6-7,80,70,62,68,64,60,93,82,66,29.94,29.85,3,0,10,0.00
2014-6-8,71,67,66,67,65,64,97,95,86,29.90,29.82,2,0,6,0.00
2014-6-10,76,67,63,66,62,61,94,84,65,29.89,29.84,7,1,12,0.02
2014-6-11,80,69,62,67,63,60,96,81,56,29.88,29.74,6,2,12,0.03
2014-6-12,75,66,60,67,63,60,98,90,68,29.85,29.76,4,0,7,0.02
2014-6-13,78,65,60,68,62,59,99,90,66,29.91,29.79,7,1,8,0.04
2014-6-14,82,68,58,69,60,56,100,78,42,30.02,29.91,4,0,7,0.01
2014-6-15,75,67,62,67,62,57,95,84,71,30.11,30.00,2,0,4,0.00
2014-6-16,82,73,67,72,67,63,94,82,66,30.14,30.07,2,0,7,0.00
2014-6-17,89,74,63,72,66,62,99,78,50,30.16,30.03,2,0,7,0.00
2014-6-18,88,72,64,73,67,63,97,85,52,30.10,30.03,7,0,13,0.39
2014-6-19,88,73,63,74,67,62,99,83,55,30.10,30.01,8,1,10,0.00
2014-6-20,86,72,62,75,66,60,98,84,58,30.05,29.90,3,0,8,0.00
2014-6-21,83,72,64,72,66,63,97,85,61,29.92,29.81,6,1,9,0.02
2014-6-22,86,73,63,69,64,62,98,77,48,29.89,29.80,5,1,10,0.00
2014-6-23,81,71,65,70,66,62,97,84,65,30.03,29.88,3,0,8,0.14
2014-6-24,78,69,64,71,67,64,99,93,76,30.04,29.93,2,0,6,0.04
2014-6-25,80,71,66,72,66,63,97,86,68,29.97,29.90,6,1,9,0.00
2014-6-26,84,73,64,69,65,63,97,78,52,30.01,29.88,5,1,9,0.00
2014-6-27,80,72,67,70,66,63,92,83,64,30.05,29.93,3,0,5,0.00
2014-6-28,81,70,66,71,67,65,98,90,68,30.14,30.03,3,0,7,0.01
2014-6-29,83,70,65,72,67,65,100,92,65,30.17,30.05,4,0,10,1.20
2014-6-30,77,68,64,72,67,64,100,96,74,30.07,29.93,2,0,7,0.02
2014-7-1,88,74,65,74,69,65,100,86,59,29.96,29.82,2,0,5,0.00
2014-7-2,87,74,67,76,69,65,97,84,61,29.92,29.84,3,0,7,0.26
2014-7-3,82,71,64,74,66,56,97,84,68,29.97,29.87,8,2,14,0.00
2014-7-4,78,66,57,65,57,52,93,75,52,30.17,29.97,7,4,11,0.00
2014-7-5,82,66,55,66,56,50,90,72,47,30.25,30.14,3,0,8,0.00
2014-7-6,81,69,58,66,60,55,92,73,50,30.15,29.99,3,0,6,0.00
2014-7-7,84,72,62,70,64,60,94,77,55,30.02,29.87,3,0,7,0.00
2014-7-8,85,72,64,73,64,59,95,79,53,29.98,29.86,6,0,9,0.06
2014-7-9,77,69,63,71,66,62,98,90,78,30.01,29.91,4,0,8,0.58
2014-7-10,79,68,63,73,66,62,100,94,75,30.08,29.96,2,0,5,0.48
2014-7-11,82,71,64,72,67,63,100,88,65,30.15,30.05,2,0,8,0.00
2014-7-12,83,73,66,71,68,65,100,85,62,30.16,30.07,6,0,8,0.00
2014-7-13,83,73,67,74,69,65,97,87,68,30.09,29.96,1,0,3,0.01
2014-7-14,86,74,68,75,70,67,98,88,64,29.98,29.81,3,0,9,0.04
2014-7-15,77,69,64,73,66,62,97,91,77,29.86,29.73,7,1,11,0.06
2014-7-16,78,65,56,63,58,53,98,80,51,29.94,29.80,5,2,10,0.00
2014-7-17,78,66,56,64,57,52,89,75,58,30.05,29.93,4,0,7,0.00
2014-7-18,66,63,61,65,62,58,100,96,76,30.12,30.04,2,0,5,0.69
2014-7-19,62,61,59,62,60,58,100,99,97,30.10,30.04,2,0,6,0.46
2014-7-20,77,64,59,71,62,58,99,95,81,30.11,29.98,4,0,9,0.00
2014-7-21,73,68,64,72,66,63,99,96,92,30.09,30.00,2,0,6,0.18
2014-7-22,82,70,65,74,68,64,99,92,76,30.12,30.02,4,0,7,0.00
2014-7-23,81,70,66,75,68,65,99,93,76,30.07,29.91,4,0,7,0.01
2014-7-24,79,69,65,73,67,64,99,95,80,29.93,29.83,6,0,12,0.33
2014-7-25,83,70,63,70,66,62,99,88,62,30.02,29.91,5,0,7,0.00
2014-7-26,87,73,64,72,66,63,99,82,52,29.99,29.89,3,0,7,0.00
2014-7-27,84,73,64,75,67,63,98,85,65,29.96,29.77,10,0,13,0.59
2014-7-28,78,67,62,69,63,58,99,87,64,29.92,29.78,9,3,15,0.20
2014-7-29,74,64,57,64,58,52,96,82,62,30.01,29.87,6,2,11,0.00
2014-7-30,75,62,52,63,55,50,96,80,61,30.07,30.01,2,0,7,0.00
2014-7-31,65,61,57,64,58,54,96,90,82,30.11,30.05,3,0,6,0.00
2014-8-1,75,64,59,68,62,58,99,93,75,30.11,30.00,3,0,7,0.09
2014-8-2,73,65,60,70,63,59,98,94,86,30.09,30.01,3,0,6,0.02
2014-8-3,81,70,63,70,64,58,99,84,59,30.08,29.98,3,0,7,0.00
2014-8-4,77,67,60,70,62,58,96,86,74,30.07,29.98,1,0,5,0.00
2014-8-5,80,70,62,71,64,60,98,83,60,30.05,29.95,4,1,10,0.00
2014-8-6,83,70,62,71,64,59,93,81,59,30.00,29.90,3,0,9,0.00
2014-8-7,83,71,62,71,65,61,99,83,59,29.98,29.91,5,1,9,0.00
2014-8-8,70,67,65,70,65,63,100,94,83,30.05,29.94,3,0,9,0.71
2014-8-9,80,70,65,74,68,64,100,95,77,30.02,29.92,2,0,6,0.94
2014-8-10,73,65,63,70,65,63,100,97,88,30.03,29.93,4,0,8,0.01
2014-8-11,81,69,64,73,67,64,100,95,74,30.02,29.85,4,0,8,0.07
2014-8-12,81,71,65,74,68,64,99,92,70,29.87,29.74,5,0,9,0.09
2014-8-13,73,64,59,66,61,57,98,88,72,30.01,29.82,8,4,12,0.00
2014-8-14,81,65,55,67,59,54,98,82,55,30.05,29.94,4,0,9,0.00
2014-8-15,82,68,58,67,60,57,98,79,52,30.02,29.92,4,0,9,0.00
2014-8-16,79,68,59,68,62,58,96,81,57,30.02,29.94,2,0,7,0.00
2014-8-17,80,70,63,72,65,60,94,83,64,30.01,29.90,3,0,6,0.00
2014-8-18,83,71,66,73,67,65,98,89,70,29.92,29.76,3,0,11,0.19
2014-8-19,82,72,65,72,68,65,98,88,65,29.86,29.77,4,1,10,0.00
2014-8-20,85,71,64,74,67,62,98,86,61,30.07,29.86,9,1,12,0.01
2014-8-21,87,72,60,74,66,60,98,84,62,30.10,30.01,5,1,10,0.00
2014-8-22,89,76,68,76,70,66,95,81,58,30.05,29.90,6,1,11,0.00
2014-8-23,87,75,68,75,70,66,98,85,62,29.94,29.83,6,1,11,0.00
2014-8-24,76,70,65,70,67,62,97,89,78,30.03,29.85,2,0,9,0.00
2014-8-25,80,68,62,68,62,59,93,83,64,30.08,29.99,2,0,8,0.00
2014-8-26,83,68,57,68,61,56,95,79,57,30.13,30.01,4,0,8,0.00
2014-8-27,87,70,57,68,61,56,98,76,47,30.07,29.96,4,0,8,0.00
2014-8-28,88,72,62,72,64,57,97,76,50,30.02,29.91,1,0,7,0.41
2014-8-29,84,73,65,72,67,64,96,83,60,30.07,29.98,4,0,10,0.00
2014-8-30,82,72,65,70,67,64,98,86,58,30.11,30.02,3,0,7,0.01
2014-8-31,84,72,65,74,69,64,99,88,65,30.10,30.00,3,0,5,0.45
2014-9-1,83,73,67,73,68,66,98,86,61,30.07,29.99,7,0,12,0.22
2014-9-2,82,72,64,75,69,64,99,90,70,30.04,29.90,8,0,10,0.64
2014-9-3,82,70,62,75,67,62,100,90,67,30.04,29.95,3,0,10,0.01
2014-9-4,77,70,66,74,68,66,99,94,81,30.13,30.03,2,0,5,0.30
2014-9-5,81,70,65,76,68,65,100,95,73,30.17,30.03,1,0,4,0.05
2014-9-6,81,69,65,75,68,65,100,95,70,30.05,29.91,1,0,5,0.19
2014-9-7,80,68,64,73,67,64,100,95,72,30.03,29.92,1,0,4,0.17
2014-9-8,71,66,63,68,65,62,100,97,86,30.07,29.98,3,0,7,0.18
2014-9-9,81,67,62,72,65,62,99,93,67,30.09,29.99,2,0,5,0.09
2014-9-10,74,67,62,68,65,62,99,93,77,30.07,29.96,3,0,7,0.00
2014-9-11,81,70,64,75,68,64,99,94,74,30.00,29.92,6,0,8,0.31
2014-9-12,82,70,64,75,68,64,100,93,73,30.03,29.92,0,0,0,1.11
2014-9-13,74,67,60,70,66,60,100,96,85,30.11,29.95,7,2,12,0.01
2014-9-14,66,61,59,62,60,58,99,95,87,30.19,30.10,4,0,6,0.00
2014-9-15,78,65,59,71,63,59,100,95,75,30.18,30.06,2,0,4,0.26
2014-9-16,77,67,63,71,65,61,100,94,77,30.08,29.90,4,1,11,0.00
2014-9-17,72,64,60,66,61,57,99,90,78,29.93,29.83,4,0,8,0.00
2014-9-18,72,63,56,64,59,55,99,88,66,30.00,29.88,1,0,1,0.00
2014-9-19,73,63,58,67,61,57,99,92,76,30.16,29.99,4,0,6,0.01
2014-9-20,76,64,58,65,59,56,99,84,61,30.17,29.99,3,0,7,0.00